Dewpoint
-2 4 5 4 5 5 2 2 3 0 -1 1 2 1 1 0 -0 -2 1 1 1 1 1 1 5 7 8 11 12 11 11 10 9 7 6 6 5 4 1 -1 -3 -6 -7 -11
2 3 2 1 1 4 5 6 4 0 -1 -0 1 2 0 -1 -0 -0 -0 -0 -0 1 1 1 3 7 8 10 10 11 11 10 9 7 6 5 5 4 1 -2 -3 -5 -8 -12
-1 -3 -1 1 3 3 5 6 6 5 1 -1 -0 3 3 0 -1 -1 -1 -1 -0 1 1 1 2 7 10 11 9 11 10 10 9 7 6 6 5 4 1 -1 -3 -5 -9 -12
-2 -1 -2 -0 -0 3 4 1 6 3 4 6 5 7 3 1 -0 -2 -3 -2 -1 0 1 1 2 6 10 11 10 10 10 10 9 7 6 6 6 4 2 -1 -5 -7 -8 -12
-4 -5 -5 1 -0 -2 -1 -2 1 5 5 5 5 7 3 -1 1 -1 -2 -2 -1 -0 1 1 2 6 6 8 9 8 10 10 9 7 7 6 5 4 2 -1 -5 -6 -8 -11
-3 -6 -5 3 -2 -1 -3 -2 -2 -1 4 7 4 5 1 -0 -2 -4 -3 -2 -2 -1 -0 1 1 5 5 7 7 9 10 10 9 7 6 7 4 4 2 0 -4 -6 -9 -11
-7 -5 -5 -1 4 1 -1 0 4 4 6 5 3 5 2 -3 -5 -5 -6 -4 -3 -3 -1 0 1 3 7 7 8 8 10 9 9 7 6 5 4 4 1 1 -2 -8 -9 -11
-5 -3 -2 -4 0 2 1 1 4 5 5 3 0 6 3 -2 -3 -6 -8 -8 -5 -3 -2 0 1 2 8 7 7 7 9 9 8 7 7 6 4 2 3 2 -1 -5 -10 -11
-3 -7 -10 -6 -4 -4 3 3 2 3 3 3 4 3 -1 -2 -3 -7 -8 -8 -8 -8 -2 0 1 2 6 7 7 6 8 9 8 8 7 7 6 4 4 3 1 -3 -8 -10
-5 -4 -10 -6 -3 -3 0 3 4 5 6 5 1 2 -1 -2 -8 -9 -9 -8 -7 -8 -8 -2 2 2 5 6 7 7 7 8 8 8 7 5 4 3 4 3 2 -1 -6 -9
-6 -5 -8 -10 -6 -1 -1 3 3 4 2 6 5 -1 -5 -2 -2 -2 -2 -1 -0 -1 -5 -6 -3 3 4 7 8 7 7 8 7 7 7 6 4 3 4 4 3 1 -4 -9
-6 -5 -6 -8 -2 -3 -1 -1 -1 3 5 2 2 3 -1 -1 -1 -1 -0 -0 0 -0 -1 -2 -1 3 5 6 8 7 7 7 7 7 7 6 5 4 4 5 4 1 -4 -8
-7 -7 -6 -8 -4 -7 -3 -3 -2 -0 2 3 2 4 0 -1 -2 -3 -2 -1 -1 -1 -1 -1 -2 3 5 6 8 7 7 7 7 7 7 7 6 5 4 5 5 3 -2 -7
-10 -7 -7 -6 -5 -7 -5 -6 -4 -0 3 3 1 2 2 2 1 -1 -3 -3 -1 -3 -2 0 -0 -2 3 7 8 8 8 7 7 7 7 7 6 5 3 4 4 4 -2 -6
-9 -7 -10 -10 -10 -11 -9 -7 -6 -5 -3 1 -0 0 3 2 -0 -0 1 -1 -3 -3 -0 1 1 0 -2 6 8 8 7 7 7 7 7 7 6 6 5 5 5 4 0 -4
-11 -7 -8 -7 -11 -11 -11 -10 -3 1 -0 -6 -5 3 -2 2 0 2 -0 -3 -3 -3 1 1 2 3 -3 6 7 8 8 8 7 7 7 7 6 6 6 5 4 3 0 -4
-9 -7 -7 -8 -10 -9 -2 -0 0 -0 -1 1 1 -1 -4 -4 -4 -4 -3 -2 -3 -1 1 2 3 4 1 6 6 7 8 7 7 7 6 6 6 4 5 4 3 2 0 0
-11 -9 -7 -7 -7 -1 -0 -3 -1 -1 -3 -4 -4 -3 -4 -4 -5 -5 -2 -2 1 -1 2 4 4 4 5 5 6 7 7 7 7 6 6 5 5 5 4 4 3 1 0 -4
-9 -8 -7 -5 -7 -8 -3 -3 -4 -3 -2 -6 -4 -4 -4 -5 -5 -3 -3 -1 3 3 4 4 4 4 5 6 6 7 6 7 6 6 5 5 4 4 4 3 1 -3 -3 -7
-8 -10 -6 -5 -6 -1 -4 -9 -10 -9 -1 -9 -7 -4 -4 -5 -3 -4 -2 1 3 4 4 4 3 5 5 6 6 6 6 6 6 5 4 4 4 4 2 2 1 -2 -4 -6
-6 -7 -5 -8 -4 -6 -10 -10 -10 -3 -5 -10 -9 -5 -4 -4 -4 -2 -1 1 2 2 2 2 3 4 5 6 6 6 5 5 5 4 3 2 1 2 2 0 -1 -2 -3 -5
-5 -4 -6 -8 -7 -5 -11 -10 -6 -8 -9 -9 -8 -5 -4 -4 -2 -1 -1 -1 -0 0 1 2 3 3 3 4 5 5 4 4 3 3 2 1 0 -0 0 -0 -2 -2 -3 -5
-4 -7 -6 -5 -4 -10 -11 -9 -9 -9 -8 -8 -7 -5 -4 -3 -3 -3 -3 -3 -3 -2 -1 -0 1 1 1 1 2 2 1 1 1 1 -0 -1 -1 -1 -2 -1 -2 -3 -3 -2
-8 -11 -8 -10 -10 -12 -12 -10 -9 -8 -8 -7 -6 -5 -5 -4 -5 -5 -5 -4 -4 -4 -3 -2 -2 -1 -2 -1 -1 1 -1 -1 -1 -1 -3 -4 -4 -5 -5 -3 -4 -2 -3 -4
-10 -10 -10 -11 -12 -12 -12 -11 -9 -8 -8 -6 -6 -6 -6 -6 -6 -6 -6 -6 -5 -5 -5 -4 -4 -4 -4 -4 -3 -3 -3 -2 -2 -3 -5 -5 -5 -4 -4 -3 -3 -4 -8 -8
-11 -9 -9 -9 -11 -10 -9 -9 -9 -7 -7 -6 -6 -6 -7 -6 -6 -6 -7 -7 -6 -6 -6 -6 -6 -6 -6 -6 -6 -6 -5 -4 -5 -6 -6 -5 -4 -4 -5 -6 -6 -4 -4 -4
Wind_Speed
19 15 22 36 36 29 25 23 16 18 22 21 22 28 20 18 22 20 27 33 35 35 34 33 34 36 36 42 49 51 48 46 43 40 39 37 34 30 30 29 30 31 31 29
15 22 27 29 26 25 28 27 26 23 16 23 22 25 17 16 22 22 17 21 25 30 36 35 33 38 39 42 44 51 49 46 41 42 40 39 36 31 30 30 31 30 32 30
21 27 22 26 25 30 26 24 26 24 15 15 18 22 19 19 18 25 31 33 31 26 32 37 38 40 41 43 45 48 45 46 44 40 38 36 33 32 31 30 30 31 31 31
13 15 25 29 31 24 26 26 20 28 17 13 8 7 15 18 20 20 23 28 30 31 31 36 39 41 43 42 42 44 50 54 46 41 41 42 42 41 37 33 32 33 31 31
15 21 22 24 33 27 28 27 21 23 19 15 12 7 7 11 23 25 20 28 28 33 31 32 40 43 43 42 42 45 49 55 52 49 45 47 42 40 38 37 36 34 33 31
21 24 15 19 30 27 25 24 24 20 11 18 24 14 18 9 18 15 18 35 38 37 36 36 32 40 46 44 41 46 52 54 56 52 50 48 44 49 43 41 39 37 35 33
21 7 11 12 7 22 28 22 11 11 13 12 19 15 15 9 13 18 13 16 34 41 40 42 41 37 47 49 44 45 51 52 56 55 52 49 45 43 43 43 42 40 39 36
10 9 8 15 5 7 21 25 9 15 7 8 14 9 7 25 19 9 13 6 8 36 40 40 43 39 43 48 46 45 49 53 58 59 55 47 44 41 41 43 43 42 41 39
7 8 28 16 19 12 4 19 20 5 3 0 6 4 3 12 16 8 5 13 18 16 23 38 41 39 41 46 49 46 49 53 57 59 56 52 47 45 47 48 44 41 41 41
8 11 12 17 15 9 7 5 11 7 5 6 6 8 5 15 9 10 9 4 13 19 23 23 38 42 41 48 51 47 50 56 59 58 57 54 51 47 44 45 44 42 42 42
12 4 11 15 7 15 6 5 7 3 2 1 3 4 11 12 11 10 10 14 17 16 23 28 24 37 40 46 50 50 48 54 57 61 58 54 52 48 39 42 42 43 43 43
5 5 12 18 7 13 8 11 10 4 4 1 3 2 13 15 12 9 9 12 11 14 12 1 19 32 37 46 48 50 46 54 56 58 56 57 52 48 48 44 46 44 44 44
7 5 11 11 4 7 6 12 14 10 2 4 3 3 9 12 10 12 10 14 9 11 12 11 10 26 34 46 49 48 45 54 56 58 58 58 56 53 48 47 47 45 44 44
6 3 9 9 13 13 16 22 15 6 3 3 6 9 8 6 6 7 10 8 15 19 12 11 9 16 30 46 48 45 46 54 53 57 59 59 57 52 52 52 49 46 46 44
6 7 15 17 22 19 17 16 14 7 7 0 8 7 13 10 7 3 10 13 20 17 8 13 12 12 14 46 47 46 44 49 53 56 59 60 58 58 54 51 49 48 45 43
7 7 14 14 15 10 16 14 13 9 6 3 2 9 17 10 9 1 7 16 17 14 9 12 12 12 15 45 45 46 46 48 51 57 58 60 57 58 54 51 52 50 47 44
2 2 5 5 13 16 3 14 15 16 23 11 12 11 16 14 16 16 21 21 17 5 6 7 10 12 7 39 46 43 44 45 47 52 52 54 56 55 55 53 54 52 49 45
3 3 3 6 11 3 5 17 12 12 16 19 14 17 16 18 28 21 22 30 26 8 1 1 4 5 6 29 38 44 42 41 44 49 49 51 55 57 56 55 53 53 50 49
5 4 3 3 6 7 11 12 11 10 7 20 17 18 19 31 25 6 36 31 24 8 5 3 0 1 6 17 32 38 40 39 43 47 51 54 56 55 54 54 54 51 53 50
8 6 2 4 3 4 12 17 18 9 2 20 21 16 19 24 11 6 39 26 12 5 2 2 2 6 7 12 22 31 37 39 42 48 53 56 56 55 53 54 53 50 50 49
5 2 2 5 3 2 17 18 22 4 8 30 26 21 20 10 13 27 25 13 8 5 3 3 1 6 9 16 23 34 38 41 44 49 52 52 50 51 52 53 53 54 52 48
3 5 2 2 2 3 29 10 7 11 22 25 28 23 22 24 23 15 10 8 7 5 2 1 4 7 10 17 23 32 36 39 43 46 49 49 48 47 52 51 53 52 50 46
3 1 2 6 3 9 12 14 17 20 23 24 26 28 27 19 13 10 9 8 7 5 4 4 5 7 8 10 15 26 30 35 39 40 42 44 46 49 50 54 55 53 48 44
5 15 4 9 6 20 21 20 25 27 27 25 23 22 20 14 10 8 8 8 8 8 8 7 8 9 11 12 15 20 27 31 37 43 47 48 51 51 49 51 49 45 41 37
6 6 7 6 5 29 2 35 32 29 24 22 21 17 16 11 9 7 9 9 10 11 11 10 13 15 18 20 24 27 30 33 39 42 44 45 46 47 50 48 45 40 35 31
8 4 3 3 22 18 25 33 30 21 22 19 17 16 13 9 8 9 12 13 15 16 16 18 20 22 25 27 32 36 37 38 46 50 50 50 52 52 50 50 44 31 27 26
Wind_Direction
234 239 225 232 230 236 242 246 242 237 225 207 213 238 217 227 259 215 208 215 217 215 212 210 212 213 210 207 198 203 190 190 189 186 178 178 180 182 186 187 184 182 176 176
251 232 237 242 251 244 248 242 249 243 229 224 220 237 227 219 234 242 239 246 220 213 206 205 208 212 209 207 210 200 209 191 185 186 183 183 177 182 188 186 186 182 178 177
274 261 251 245 242 244 246 240 233 245 267 212 227 236 219 228 240 231 228 229 238 225 204 201 204 205 204 202 207 211 206 194 188 186 179 177 173 179 179 186 183 182 183 179
279 294 276 258 246 233 244 240 250 238 225 243 205 252 214 229 235 238 237 232 226 225 222 203 199 202 204 200 205 211 203 198 189 183 178 178 179 182 188 188 186 185 186 183
261 285 300 264 246 244 243 248 239 245 225 227 220 246 222 216 220 228 229 225 224 220 219 218 201 204 209 207 205 211 207 203 193 184 182 185 184 195 190 189 188 188 186 187
260 264 272 265 244 236 241 245 250 263 224 232 214 209 252 204 223 226 216 221 215 212 217 217 219 206 207 208 206 208 206 205 196 190 190 190 190 194 191 188 189 189 188 189
306 260 318 228 290 240 227 228 226 235 229 239 223 212 228 200 219 222 229 196 201 208 210 212 214 208 201 202 203 203 206 205 200 191 193 197 197 200 196 195 193 193 192 190
348 316 16 339 298 303 238 213 217 211 168 233 196 206 224 224 253 267 297 254 207 197 204 209 211 213 199 200 201 200 204 204 201 196 200 202 201 202 203 202 197 199 196 193
303 290 315 311 316 308 260 208 216 299 103 106 158 304 243 226 223 215 248 217 233 249 218 207 209 211 202 200 203 201 203 204 203 203 204 203 203 202 203 202 199 201 199 196
307 304 306 348 335 352 316 328 183 205 208 196 191 182 165 187 169 186 214 227 230 229 238 214 208 207 207 203 205 202 203 199 203 205 203 197 193 195 206 202 200 199 201 198
327 322 298 324 352 320 332 4 203 191 205 29 124 185 174 94 79 86 73 46 19 23 217 225 219 205 204 197 200 199 201 199 201 199 201 196 194 190 203 209 207 205 200 199
327 286 312 294 139 34 31 37 11 202 124 144 58 14 102 75 67 64 72 64 50 28 6 12 213 200 202 196 199 200 201 200 199 201 202 196 197 193 201 205 209 206 202 199
336 345 326 349 22 2 351 345 333 331 239 187 124 181 82 85 70 47 37 7 19 5 356 338 265 204 198 197 196 202 203 199 200 200 203 201 199 194 198 206 208 206 204 200
23 315 321 297 288 305 305 305 338 335 357 356 174 129 129 132 106 51 11 355 321 342 337 331 301 248 206 196 194 193 200 204 197 199 198 199 197 196 198 204 206 206 202 200
352 310 309 305 297 293 291 302 320 343 288 160 5 56 35 31 21 45 22 309 320 314 340 327 314 290 236 193 188 193 199 202 197 197 199 201 200 198 198 205 205 203 201 199
320 307 307 304 300 326 325 309 296 296 260 237 309 53 7 343 336 249 276 303 294 318 339 326 325 335 230 188 182 186 194 198 197 196 196 199 196 197 198 205 203 200 197 194
261 292 312 274 332 317 345 12 15 59 38 39 46 7 2 2 349 339 331 313 313 306 321 326 334 337 267 186 188 182 188 197 198 195 191 192 195 195 199 200 199 197 193 192
277 272 271 292 311 19 73 33 7 55 45 32 19 2 355 340 322 312 15 1 339 284 296 341 305 337 80 173 176 178 188 195 197 193 189 191 193 197 201 199 198 194 190 186
22 330 300 295 322 270 28 4 342 0 43 25 6 350 346 339 331 110 359 351 359 94 124 201 219 160 123 167 174 180 186 193 191 189 192 193 196 197 195 194 189 186 183 179
300 292 249 336 298 351 -0 326 309 280 122 1 357 345 344 344 0 323 337 337 2 62 101 275 140 160 173 169 187 190 189 194 199 194 191 192 195 196 192 190 186 180 179 172
313 347 230 277 291 68 354 343 330 39 325 333 338 335 334 331 309 306 316 2 3 355 326 319 184 165 185 179 190 185 184 186 189 193 191 187 185 189 187 184 181 178 171 162
318 319 320 282 323 335 354 5 42 329 326 325 327 326 320 314 314 333 353 358 348 352 351 106 181 180 189 190 194 187 185 185 189 190 188 185 183 180 180 180 173 172 165 159
53 83 254 17 22 355 18 50 12 354 333 326 326 325 329 340 358 2 21 15 25 33 67 121 161 169 166 184 203 182 168 176 180 178 171 170 171 169 167 172 166 161 164 159
20 21 39 339 2 352 330 9 360 349 335 332 332 342 346 347 359 15 35 41 51 67 86 106 133 139 142 159 173 184 167 169 169 162 157 155 155 153 156 158 153 151 150 141
334 348 321 268 347 338 354 340 339 333 332 338 347 351 357 3 16 35 52 64 76 85 95 110 117 124 129 144 149 156 162 166 156 152 150 149 153 155 150 144 141 136 135 141
9 337 329 292 311 294 302 312 319 329 327 339 347 2 11 22 49 69 76 86 93 97 104 107 113 121 128 135 135 139 147 156 151 143 143 146 145 139 133 128 127 131 131 135
Height
1417 1420 1407 1392 1387 1389 1396 1401 1398 1392 1392 1395 1399 1393 1402 1407 1405 1404 1407 1411 1415 1420 1428 1433 1437 1442 1447 1455 1459 1464 1472 1479 1486 1491 1496 1500 1506 1512 1517 1522 1527 1528 1532 1536
1412 1401 1394 1393 1396 1392 1395 1396 1392 1385 1384 1390 1391 1387 1394 1396 1397 1401 1402 1404 1406 1413 1418 1424 1428 1435 1439 1447 1455 1459 1466 1474 1478 1486 1493 1498 1504 1510 1516 1520 1526 1530 1531 1535
1408 1389 1395 1396 1395 1391 1389 1387 1392 1393 1382 1377 1384 1385 1389 1389 1392 1393 1396 1399 1403 1405 1410 1415 1421 1425 1433 1438 1447 1456 1462 1469 1476 1483 1489 1498 1503 1508 1514 1520 1524 1529 1533 1534
1410 1392 1396 1388 1379 1389 1384 1381 1389 1382 1387 1391 1395 1388 1385 1383 1384 1386 1386 1390 1394 1399 1405 1409 1413 1417 1425 1433 1441 1450 1456 1462 1470 1478 1482 1490 1495 1499 1508 1516 1523 1527 1533 1535
1402 1395 1391 1386 1372 1374 1369 1372 1377 1385 1374 1383 1388 1394 1377 1372 1375 1374 1378 1382 1386 1392 1398 1403 1406 1408 1418 1426 1433 1442 1449 1456 1462 1469 1479 1481 1486 1500 1503 1510 1518 1524 1530 1535
1396 1388 1383 1367 1361 1365 1368 1370 1373 1371 1376 1368 1372 1380 1360 1367 1362 1366 1366 1369 1375 1382 1390 1396 1401 1403 1409 1417 1425 1434 1441 1448 1456 1463 1469 1480 1480 1486 1497 1505 1512 1520 1527 1533
1395 1373 1373 1367 1362 1361 1361 1369 1375 1379 1370 1365 1362 1372 1362 1353 1353 1355 1356 1357 1364 1373 1381 1386 1393 1397 1400 1407 1417 1427 1434 1442 1449 1457 1464 1470 1480 1488 1488 1499 1505 1515 1522 1529
1411 1383 1376 1375 1378 1365 1351 1351 1357 1356 1351 1354 1354 1361 1359 1347 1347 1348 1352 1357 1360 1364 1370 1378 1385 1393 1392 1399 1411 1417 1428 1436 1444 1451 1459 1466 1474 1478 1487 1494 1500 1511 1518 1525
1415 1388 1376 1374 1370 1371 1339 1347 1350 1359 1354 1367 1355 1352 1337 1340 1344 1350 1351 1353 1357 1362 1367 1370 1377 1385 1386 1394 1403 1410 1421 1430 1438 1446 1454 1460 1464 1475 1482 1491 1494 1505 1515 1521
1418 1403 1377 1376 1364 1351 1356 1350 1351 1354 1348 1349 1340 1344 1337 1340 1345 1345 1349 1353 1356 1358 1362 1366 1370 1377 1381 1387 1396 1406 1414 1422 1430 1438 1446 1453 1460 1469 1485 1489 1493 1496 1510 1518
1421 1419 1399 1387 1377 1373 1360 1354 1342 1347 1340 1342 1343 1342 1325 1336 1339 1345 1349 1353 1356 1355 1357 1361 1366 1371 1376 1382 1390 1400 1409 1419 1426 1433 1442 1448 1456 1462 1476 1486 1490 1497 1502 1513
1421 1416 1410 1394 1383 1381 1375 1370 1367 1338 1345 1342 1344 1352 1336 1337 1344 1348 1353 1356 1358 1359 1358 1359 1362 1367 1371 1376 1385 1393 1403 1412 1419 1428 1435 1443 1451 1459 1470 1477 1487 1494 1499 1506
1423 1422 1410 1387 1381 1377 1384 1380 1378 1366 1357 1344 1346 1361 1342 1344 1349 1351 1355 1357 1361 1362 1362 1360 1360 1363 1366 1371 1377 1386 1396 1406 1413 1421 1429 1436 1445 1452 1461 1471 1480 1489 1496 1503
1424 1427 1426 1427 1413 1403 1399 1387 1374 1370 1355 1353 1348 1353 1352 1351 1353 1355 1356 1360 1362 1361 1360 1361 1359 1359 1362 1365 1371 1381 1390 1400 1408 1415 1423 1430 1437 1446 1454 1463 1474 1483 1491 1498
1427 1429 1417 1409 1403 1396 1384 1374 1368 1377 1369 1370 1355 1351 1361 1357 1358 1357 1356 1361 1362 1361 1359 1358 1357 1356 1357 1358 1366 1375 1385 1394 1402 1409 1417 1424 1432 1441 1448 1459 1468 1478 1485 1493
1426 1428 1419 1414 1392 1383 1382 1375 1370 1361 1357 1351 1350 1364 1373 1367 1363 1362 1361 1361 1362 1359 1357 1356 1354 1352 1353 1353 1361 1371 1380 1388 1396 1403 1411 1418 1427 1436 1442 1452 1464 1471 1478 1486
1429 1428 1427 1409 1395 1388 1381 1382 1376 1376 1376 1371 1376 1386 1379 1375 1371 1370 1367 1364 1360 1358 1357 1357 1354 1351 1349 1350 1355 1369 1377 1383 1393 1400 1409 1413 1421 1429 1436 1446 1456 1465 1472 1481
1424 1427 1423 1414 1397 1383 1388 1390 1390 1389 1394 1393 1391 1390 1388 1384 1375 1371 1370 1363 1359 1356 1356 1357 1354 1353 1351 1354 1358 1364 1372 1382 1391 1398 1404 1410 1417 1423 1432 1441 1450 1459 1466 1476
1424 1425 1428 1421 1409 1390 1393 1399 1402 1397 1398 1400 1401 1396 1389 1380 1367 1365 1364 1364 1361 1357 1357 1356 1356 1356 1358 1359 1362 1366 1371 1379 1387 1394 1400 1405 1411 1416 1427 1435 1444 1455 1461 1472
1426 1422 1429 1422 1414 1393 1416 1405 1397 1394 1392 1405 1407 1402 1395 1386 1380 1376 1373 1368 1363 1360 1358 1357 1358 1359 1360 1363 1367 1369 1372 1378 1385 1391 1397 1402 1407 1411 1422 1431 1438 1450 1460 1468
1431 1430 1430 1422 1418 1406 1415 1402 1382 1391 1417 1408 1406 1405 1399 1395 1393 1383 1377 1370 1366 1363 1361 1360 1360 1361 1363 1364 1367 1368 1371 1377 1382 1387 1392 1399 1404 1405 1418 1428 1437 1445 1458 1466
1437 1428 1429 1421 1424 1419 1417 1406 1415 1427 1419 1414 1407 1403 1399 1393 1386 1381 1376 1372 1368 1366 1364 1362 1362 1363 1364 1365 1367 1368 1371 1375 1380 1385 1391 1398 1404 1412 1415 1424 1435 1448 1456 1466
1437 1445 1446 1438 1430 1434 1429 1429 1429 1425 1421 1413 1407 1400 1394 1389 1384 1381 1377 1373 1371 1368 1366 1365 1364 1364 1365 1366 1369 1369 1372 1376 1381 1387 1395 1401 1406 1413 1420 1425 1434 1445 1457 1465
1443 1442 1446 1441 1427 1430 1428 1426 1425 1423 1418 1413 1406 1399 1393 1389 1386 1382 1379 1376 1373 1371 1370 1369 1369 1367 1368 1370 1372 1374 1377 1380 1384 1389 1396 1403 1409 1415 1426 1429 1441 1452 1463 1470
1462 1454 1456 1446 1436 1430 1420 1423 1424 1422 1418 1412 1405 1400 1395 1391 1388 1385 1382 1380 1378 1377 1376 1375 1373 1372 1374 1375 1376 1379 1381 1384 1390 1397 1404 1411 1417 1423 1432 1441 1450 1459 1472 1478
1468 1466 1460 1451 1445 1444 1433 1428 1427 1423 1418 1411 1406 1401 1396 1394 1391 1388 1386 1385 1383 1383 1382 1380 1379 1380 1381 1382 1384 1388 1391 1391 1393 1401 1410 1418 1424 1432 1439 1445 1455 1469 1475 1478